STARLINK-33755, 63579

Orbit data source: Space-Track

STARLINK-33755, 63579 is a payload satellite owned by SpaceX/Seattle (US) in LEO that was launched on Mon, 14 Apr 2025 UTC via an FALCON 9 launch vehicle from the Air Force Eastern Test Range (AFETR). Payload-class satellites include a variety of spacecraft equipped with specific instruments for various scientific and technological missions. These include communications satellites like Starlink; space stations such as the ISS; scientific satellites like the Hubble; Earth observation satellites from companies like Planet Labs, Umbra, and HawkEye 360; GPS; miniature CubeSats for education and research; and military/defense satellites.

Loading next visibility...
Identifier
63579, 2025-076L
Orbit
LEO
Country
Flag of USUS
Related business
Manufacturer
SpaceX/Seattle
Mission
Operational Commercial Communications
Bus & Motor
STARLINK V2MO, Unknown motor
Mass
575 kg wet, ~530 kg dry
Launch date (UTC)
2025-04-14 (7 months ago)
Launch vehicle
FALCON 9
Launch site
Air Force Eastern Test Range (AFETR)
Object type
Payload
Rocket body
Debris
Shape & HBR
Box + 2 Pan, 17.7 m
Radar Cross Section
36.964 m², Large (>1 m²)

Expand to show TLE details & history
Last TLE update: 16 hours ago

TLE from 16 hours ago
0 STARLINK-33755
1 63579U 25076L   25302.47608209  .00031691  00000-0  11554-2 0  9996
2 63579  43.0018 342.5843 0001318 275.2131  84.8571 15.27602970 31760
Epoch: 2025-10-29T11:25Z
TLE epoch observation values (Epoch: 2025-10-29T11:25:33.492Z)
Latitude
0.00003°
Longitude
133.14611°
Altitude
482.675 km
Speed
7.626 km/s
True Right ascension
22h 50m 20s
True Declination
0° 00' 00"
Sunlit
Object was in full shadow at epoch
Visualization orbit readout
Latitude
Unknown
Longitude
Unknown
Altitude
Unknown
Speed
Unknown
Apparent Right ascension
Unknown
Apparent Declination
Unknown
Sunlit
N/A
Visualization observer readout
Local Sidereal Time
22:52:39
Azimuth
Unknown
Elevation
Unknown
Doppler factor
Unknown
Orbital elements
Apogee altitude
485.83 km
Perigee altitude
484.021 km
Semi-major axis
6,863.062 km
Eccentricity
0.00013
Inclination
43.0018°
RAAN
342.5843°
Arg. of periapsis
275.2131°
True anomaly
84.87214°
Mean anomaly
84.8571°
Eccentric anomaly
84.86462°
Mean motion
3.81739 °/min
Orbital period
94.31 mins
BSTAR
0.0011554
Loading maneuver chart data...
Computing Atmospheric mass density...
Loading historical data...
Loading historical data...
Loading historical data...
Loading historical data...
Loading historical data...
Loading historical data...
Loading historical data...

Documentation

Showing up to 5 results
|